Location: Cataure
(10.5167°N, 67.1000°W)
Time: 07:15:30
(UTC+00:00)

STARLINK-31657 - Pass Details

Date: 18 April 2024
Orbit: 443 x 445 km, 43.0° (Epoch: 25 May)

Event Time Altitude Azimuth Distance (km) Brightness Sun altitude
Rises 22:55:37 0° 323° (NW) 2,385 7.7 -4.7°
Reaches altitude 10° 22:57:48 10° 330° (NNW) 1,517 6.6 -5.2°
Maximum altitude 23:01:06 43° 43° (NE) 607 3.6 -6.0°
Drops below altitude 10° 23:04:22 10° 117° (ESE) 1,513 5.2 -6.8°
Enters shadow 23:04:47 - 118° (ESE) 1,671 5.5 -6.9°
